loading
DOY 198 | 2024-07-16T13:39:30Z

STARLINK-31901, 59793

Orbit data source: Space-Track

STARLINK-31901, 59793 is a payload satellite owned by SpaceX/Seattle (US) in LEO that was launched on Sat, 18 May 2024 UTC via a Falcon 9 launch vehicle from the Air Force Eastern Test Range (AFETR). Payloads include a variety of satellites, spacecraft, and rockets equipped with specific instruments for various scientific and technological missions. These include communications satellites like Starlink; space stations such as the ISS; scientific satellites like the Hubble; Earth observation satellites from companies like Planet Labs, Umbra, and HawkEye 360; GPS; miniature CubeSats for education and research; and military/defense satellites.

Loading next visibility...
Loading greatness...
STARLINK-31901 details
NORAD ID59793
COSPAR ID
2024-093M
Orbit
LEO
Last TLE update16 hours ago
Origin
Flag of USSpaceX/Seattle (US)
ManufacturerSpaceX/Seattle
BusStarlink V2M
MotorUnknown
Mass750 kg wet, ~700 kg dry
Launch date (UTC)
2024-05-18 (2 months ago)
Launch vehicle
Falcon 9
Launch site
Air Force Eastern Test Range (AFETR)
Object type
Payload
Rocket body
Debris
Radar Cross SectionLarge (>1 m²)
Predictive object data (real-time)
Latitude10.58404°
Longitude136.23354°
Altitude442.944 km
Speed7.649 km/s
Apparent Right ascension03h 49m 17s
Apparent Declination-55° 53' 01"
Sunlit
Object is in daylight
Predictive observer data (real-time)
Local Sidereal Time02:18:35
Azimuth167.395° S
Elevation-7.719°
Doppler factor1
Orbital elements
Apogee446.927 km
Perigee445.135 km
Semi-major axis6,824.168 km
Eccentricity0.0001313
Inclination43.0034°
RAAN33.225°
Arg. of periapsis290.7051°
True anomaly69.38058°
Mean anomaly69.3665°
Mean motion3.85007 °/min
BSTAR0.000018669
Period93.5 mins
Definitive object data (Epoch: 2024-07-15T22:01:56.93Z)
Latitude-0.00001°
Longitude128.49343°
Altitude443.534 km
Speed7.648 km/s
True Right ascension02h 12m 53s
True Declination0° 00' 00"
Sunlit
Object was in daylight at TLE epoch
TLE from 16 hours ago
0 STARLINK-31901
1 59793U 24093M   24197.91802003  .00000476  00000-0  18669-4 0  9998
2 59793  43.0034  33.2250 0001313 290.7051  69.3665 15.40688753 10368
Epoch: 2024-07-15T22:01Z
No data available

STARLINK-31901 Visibility forecast

Observer location: 39.9160978°, -105.1181434

STARLINK-31901 is not visible in the next 10 days
Span
Click to sort rows by Start time (UTC) header in descending order
Start Az.
Max El. time (UTC)
Max El. Az.
Max El.
End time (UTC)
End Az.